Time,TemperatureF,DewpointF,PressureIn,WindDirection,WindDirectionDegrees,WindSpeedMPH,WindSpeedGustMPH,Humidity,HourlyPrecipIn,Conditions,Clouds,dailyrainin,SolarRadiationWatts/m^2,SoftwareType,DateUTC
2013-04-05 00:02:00,34.0,28.0,-100.00,North,9,1.0,4.0,77,0.00,,,0.00,0.000000,,2013-04-05 07:02:00,
2013-04-05 00:12:00,34.0,28.0,-100.00,North,9,1.0,4.0,77,0.00,,,0.00,0.000000,,2013-04-05 07:12:00,
2013-04-05 00:22:00,34.0,28.0,-100.00,North,9,1.0,4.0,77,0.00,,,0.00,0.000000,,2013-04-05 07:22:00,
2013-04-05 00:31:00,34.0,28.0,-100.00,North,9,1.0,4.0,77,0.00,,,0.00,0.000000,,2013-04-05 07:31:00,
2013-04-05 01:02:00,33.0,26.0,-100.00,NNE,13,1.0,5.0,74,0.00,,,0.00,0.000000,,2013-04-05 08:02:00,
2013-04-05 01:12:00,33.0,26.0,-100.00,NNE,13,1.0,5.0,74,0.00,,,0.00,0.000000,,2013-04-05 08:12:00,
2013-04-05 01:22:00,33.0,26.0,-100.00,NNE,13,1.0,5.0,74,0.00,,,0.00,0.000000,,2013-04-05 08:22:00,
2013-04-05 01:32:00,33.0,26.0,-100.00,NNE,13,1.0,5.0,74,0.00,,,0.00,0.000000,,2013-04-05 08:32:00,
2013-04-05 02:02:00,33.0,28.0,-100.00,North,10,0.0,4.0,81,0.00,,,0.00,0.000000,,2013-04-05 09:02:00,
2013-04-05 02:12:00,33.0,28.0,-100.00,North,10,0.0,4.0,81,0.00,,,0.00,0.000000,,2013-04-05 09:12:00,
2013-04-05 02:22:00,33.0,28.0,-100.00,North,10,0.0,4.0,81,0.00,,,0.00,0.000000,,2013-04-05 09:22:00,
2013-04-05 02:32:00,33.0,28.0,-100.00,North,10,0.0,4.0,81,0.00,,,0.00,0.000000,,2013-04-05 09:32:00,
2013-04-05 03:02:00,35.0,30.0,-100.00,North,9,0.0,6.0,81,0.00,,,0.00,0.000000,,2013-04-05 10:02:00,
2013-04-05 03:12:00,35.0,30.0,-100.00,North,9,0.0,6.0,81,0.00,,,0.00,0.000000,,2013-04-05 10:12:00,
2013-04-05 03:23:00,35.0,30.0,-100.00,North,9,0.0,6.0,81,0.00,,,0.00,0.000000,,2013-04-05 10:23:00,
2013-04-05 03:32:00,35.0,30.0,-100.00,North,9,0.0,6.0,81,0.00,,,0.00,0.000000,,2013-04-05 10:32:00,
2013-04-05 04:02:00,36.0,34.0,-100.00,SSE,166,0.0,4.0,92,0.00,,,0.00,0.000000,,2013-04-05 11:02:00,
2013-04-05 04:12:00,36.0,34.0,-100.00,SSE,166,0.0,4.0,92,0.00,,,0.00,0.000000,,2013-04-05 11:12:00,
2013-04-05 04:22:00,36.0,34.0,-100.00,SSE,166,0.0,4.0,92,0.00,,,0.00,0.000000,,2013-04-05 11:22:00,
2013-04-05 04:32:00,36.0,34.0,-100.00,SSE,166,0.0,4.0,92,0.00,,,0.00,0.000000,,2013-04-05 11:32:00,
2013-04-05 05:02:00,34.0,33.0,-100.00,North,7,0.0,4.0,96,0.00,,,0.00,0.000000,,2013-04-05 12:02:00,
2013-04-05 05:12:00,34.0,33.0,-100.00,North,7,0.0,4.0,96,0.00,,,0.00,0.000000,,2013-04-05 12:12:00,
2013-04-05 05:22:00,34.0,33.0,-100.00,North,7,0.0,4.0,96,0.00,,,0.00,0.000000,,2013-04-05 12:22:00,
2013-04-05 05:32:00,34.0,33.0,-100.00,North,7,0.0,4.0,96,0.00,,,0.00,0.000000,,2013-04-05 12:32:00,
2013-04-05 06:02:00,36.0,36.0,-100.00,North,352,0.0,4.0,99,0.00,,,0.00,0.000000,,2013-04-05 13:02:00,
2013-04-05 06:12:00,36.0,36.0,-100.00,North,352,0.0,4.0,99,0.00,,,0.00,0.000000,,2013-04-05 13:12:00,
2013-04-05 06:22:00,36.0,36.0,-100.00,North,352,0.0,4.0,99,0.00,,,0.00,0.000000,,2013-04-05 13:22:00,
2013-04-05 06:32:00,36.0,36.0,-100.00,North,352,0.0,4.0,99,0.00,,,0.00,0.000000,,2013-04-05 13:32:00,
2013-04-05 06:34:00,36.0,34.0,-100.00,NW,324,0.0,8.0,93,0.00,,,0.00,0.000000,,2013-04-05 13:34:00,
2013-04-05 07:02:00,36.0,34.0,-100.00,NW,324,0.0,8.0,93,0.00,,,0.00,0.000000,,2013-04-05 14:02:00,
2013-04-05 07:12:00,36.0,34.0,-100.00,NW,324,0.0,8.0,93,0.00,,,0.00,0.000000,,2013-04-05 14:12:00,
2013-04-05 07:22:00,36.0,34.0,-100.00,NW,324,0.0,8.0,93,0.00,,,0.00,0.000000,,2013-04-05 14:22:00,
2013-04-05 08:02:00,37.0,34.0,-100.00,South,188,1.0,7.0,88,0.00,,,0.00,25.000000,,2013-04-05 15:02:00,
2013-04-05 08:12:00,37.0,34.0,-100.00,South,188,1.0,7.0,88,0.00,,,0.00,25.000000,,2013-04-05 15:12:00,
2013-04-05 08:22:00,37.0,34.0,-100.00,South,188,1.0,7.0,88,0.00,,,0.00,25.000000,,2013-04-05 15:22:00,
2013-04-05 08:32:00,37.0,34.0,-100.00,South,188,1.0,7.0,88,0.00,,,0.00,25.000000,,2013-04-05 15:32:00,
2013-04-05 09:02:00,48.0,31.0,-100.00,NE,38,1.0,8.0,52,0.00,,,0.00,206.000000,,2013-04-05 16:02:00,
2013-04-05 09:13:00,48.0,31.0,-100.00,NE,38,1.0,8.0,52,0.00,,,0.00,206.000000,,2013-04-05 16:13:00,
2013-04-05 09:23:00,48.0,31.0,-100.00,NE,38,1.0,8.0,52,0.00,,,0.00,206.000000,,2013-04-05 16:23:00,
2013-04-05 09:32:00,48.0,31.0,-100.00,NE,38,1.0,8.0,52,0.00,,,0.00,206.000000,,2013-04-05 16:32:00,
2013-04-05 10:03:00,52.0,19.0,-100.00,SSW,203,3.0,13.0,27,0.00,,,0.00,614.000000,,2013-04-05 17:03:00,
2013-04-05 10:12:00,52.0,19.0,-100.00,SSW,203,3.0,13.0,27,0.00,,,0.00,614.000000,,2013-04-05 17:12:00,
2013-04-05 10:22:00,52.0,19.0,-100.00,SSW,203,3.0,13.0,27,0.00,,,0.00,614.000000,,2013-04-05 17:22:00,
2013-04-05 10:32:00,52.0,19.0,-100.00,SSW,203,3.0,13.0,27,0.00,,,0.00,614.000000,,2013-04-05 17:32:00,
2013-04-05 11:02:00,57.0,14.0,-100.00,SSW,205,5.0,12.0,18,0.00,,,0.00,851.000000,,2013-04-05 18:02:00,
2013-04-05 11:12:00,57.0,14.0,-100.00,SSW,205,5.0,12.0,18,0.00,,,0.00,851.000000,,2013-04-05 18:12:00,
2013-04-05 11:22:00,57.0,14.0,-100.00,SSW,205,5.0,12.0,18,0.00,,,0.00,851.000000,,2013-04-05 18:22:00,
2013-04-05 11:32:00,57.0,14.0,-100.00,SSW,205,5.0,12.0,18,0.00,,,0.00,851.000000,,2013-04-05 18:32:00,
2013-04-05 12:02:00,61.0,16.0,-100.00,SW,218,3.0,11.0,17,0.00,,,0.00,1023.000000,,2013-04-05 19:02:00,
2013-04-05 12:13:00,61.0,16.0,-100.00,SW,218,3.0,11.0,17,0.00,,,0.00,1023.000000,,2013-04-05 19:13:00,
2013-04-05 12:22:00,61.0,16.0,-100.00,SW,218,3.0,11.0,17,0.00,,,0.00,1023.000000,,2013-04-05 19:22:00,
2013-04-05 12:32:00,61.0,16.0,-100.00,SW,218,3.0,11.0,17,0.00,,,0.00,1023.000000,,2013-04-05 19:32:00,
2013-04-05 13:02:00,63.0,11.0,-100.00,North,11,2.0,10.0,13,0.00,,,0.00,1122.000000,,2013-04-05 20:02:00,
2013-04-05 13:11:00,63.0,11.0,-100.00,North,11,2.0,10.0,13,0.00,,,0.00,1122.000000,,2013-04-05 20:11:00,
2013-04-05 13:22:00,63.0,11.0,-100.00,North,11,2.0,10.0,13,0.00,,,0.00,1122.000000,,2013-04-05 20:22:00,
2013-04-05 14:02:00,60.0,23.0,-100.00,WNW,295,5.0,14.0,24,0.00,,,0.00,1155.000000,,2013-04-05 21:02:00,
2013-04-05 14:12:00,60.0,23.0,-100.00,WNW,295,5.0,14.0,24,0.00,,,0.00,1155.000000,,2013-04-05 21:12:00,
2013-04-05 14:23:00,60.0,23.0,-100.00,WNW,295,5.0,14.0,24,0.00,,,0.00,1155.000000,,2013-04-05 21:23:00,
2013-04-05 14:32:00,60.0,23.0,-100.00,WNW,295,5.0,14.0,24,0.00,,,0.00,1155.000000,,2013-04-05 21:32:00,
2013-04-05 15:03:00,62.0,24.0,-100.00,SSW,210,4.0,12.0,23,0.00,,,0.00,1048.000000,,2013-04-05 22:03:00,
2013-04-05 15:13:00,62.0,24.0,-100.00,SSW,210,4.0,12.0,23,0.00,,,0.00,1048.000000,,2013-04-05 22:13:00,
2013-04-05 15:22:00,62.0,24.0,-100.00,SSW,210,4.0,12.0,23,0.00,,,0.00,1048.000000,,2013-04-05 22:22:00,
2013-04-05 15:32:00,62.0,24.0,-100.00,SSW,210,4.0,12.0,23,0.00,,,0.00,1048.000000,,2013-04-05 22:32:00,
2013-04-05 16:02:00,60.0,30.0,-100.00,SSW,197,5.0,15.0,32,0.00,,,0.00,943.000000,,2013-04-05 23:02:00,
2013-04-05 16:12:00,60.0,30.0,-100.00,SSW,197,5.0,15.0,32,0.00,,,0.00,943.000000,,2013-04-05 23:12:00,
2013-04-05 16:22:00,60.0,30.0,-100.00,SSW,197,5.0,15.0,32,0.00,,,0.00,943.000000,,2013-04-05 23:22:00,
2013-04-05 16:32:00,60.0,30.0,-100.00,SSW,197,5.0,15.0,32,0.00,,,0.00,943.000000,,2013-04-05 23:32:00,
2013-04-05 17:02:00,57.0,39.0,-100.00,West,260,4.0,12.0,50,0.00,,,0.00,695.000000,,2013-04-06 00:02:00,
2013-04-05 17:12:00,57.0,39.0,-100.00,West,260,4.0,12.0,50,0.00,,,0.00,695.000000,,2013-04-06 00:12:00,
2013-04-05 17:22:00,57.0,39.0,-100.00,West,260,4.0,12.0,50,0.00,,,0.00,695.000000,,2013-04-06 00:22:00,
2013-04-05 17:32:00,57.0,39.0,-100.00,West,260,4.0,12.0,50,0.00,,,0.00,695.000000,,2013-04-06 00:32:00,
2013-04-05 18:02:00,52.0,41.0,-100.00,South,185,6.0,10.0,67,0.00,,,0.00,361.000000,,2013-04-06 01:02:00,
2013-04-05 18:12:00,52.0,41.0,-100.00,South,185,6.0,10.0,67,0.00,,,0.00,361.000000,,2013-04-06 01:12:00,
2013-04-05 18:22:00,52.0,41.0,-100.00,South,185,6.0,10.0,67,0.00,,,0.00,361.000000,,2013-04-06 01:22:00,
2013-04-05 18:32:00,52.0,41.0,-100.00,South,185,6.0,10.0,67,0.00,,,0.00,361.000000,,2013-04-06 01:32:00,
2013-04-05 19:02:00,48.0,41.0,-100.00,SSW,206,0.0,10.0,78,0.00,,,0.00,93.000000,,2013-04-06 02:02:00,
2013-04-05 19:12:00,48.0,41.0,-100.00,SSW,206,0.0,10.0,78,0.00,,,0.00,93.000000,,2013-04-06 02:12:00,
2013-04-05 19:22:00,48.0,41.0,-100.00,SSW,206,0.0,10.0,78,0.00,,,0.00,93.000000,,2013-04-06 02:22:00,
2013-04-05 19:32:00,48.0,41.0,-100.00,SSW,206,0.0,10.0,78,0.00,,,0.00,93.000000,,2013-04-06 02:32:00,
2013-04-05 20:02:00,44.0,39.0,-100.00,SSE,162,0.0,3.0,81,0.00,,,0.00,12.000000,,2013-04-06 03:02:00,
2013-04-05 20:12:00,44.0,39.0,-100.00,SSE,162,0.0,3.0,81,0.00,,,0.00,12.000000,,2013-04-06 03:12:00,
2013-04-05 20:22:00,44.0,39.0,-100.00,SSE,162,0.0,3.0,81,0.00,,,0.00,12.000000,,2013-04-06 03:22:00,
2013-04-05 20:33:00,44.0,39.0,-100.00,SSE,162,0.0,3.0,81,0.00,,,0.00,12.000000,,2013-04-06 03:33:00,
2013-04-05 21:03:00,41.0,35.0,-100.00,North,7,0.0,0.0,80,0.00,,,0.00,0.000000,,2013-04-06 04:03:00,
2013-04-05 21:13:00,41.0,35.0,-100.00,North,7,0.0,0.0,80,0.00,,,0.00,0.000000,,2013-04-06 04:13:00,
2013-04-05 21:22:00,41.0,35.0,-100.00,North,7,0.0,0.0,80,0.00,,,0.00,0.000000,,2013-04-06 04:22:00,
2013-04-05 21:32:00,41.0,35.0,-100.00,North,7,0.0,0.0,80,0.00,,,0.00,0.000000,,2013-04-06 04:32:00,
2013-04-05 22:02:00,39.0,34.0,-100.00,North,6,2.0,4.0,82,0.00,,,0.00,0.000000,,2013-04-06 05:02:00,
2013-04-05 22:12:00,39.0,34.0,-100.00,North,6,2.0,4.0,82,0.00,,,0.00,0.000000,,2013-04-06 05:12:00,
2013-04-05 22:22:00,39.0,34.0,-100.00,North,6,2.0,4.0,82,0.00,,,0.00,0.000000,,2013-04-06 05:22:00,
2013-04-05 22:32:00,39.0,34.0,-100.00,North,6,2.0,4.0,82,0.00,,,0.00,0.000000,,2013-04-06 05:32:00,
2013-04-05 23:02:00,36.0,32.0,-100.00,North,5,2.0,4.0,84,0.00,,,0.00,0.000000,,2013-04-06 06:02:00,
2013-04-05 23:12:00,36.0,32.0,-100.00,North,5,2.0,4.0,84,0.00,,,0.00,0.000000,,2013-04-06 06:12:00,
2013-04-05 23:22:00,36.0,32.0,-100.00,North,5,2.0,4.0,84,0.00,,,0.00,0.000000,,2013-04-06 06:22:00,
2013-04-05 23:32:00,36.0,32.0,-100.00,North,5,2.0,4.0,84,0.00,,,0.00,0.000000,,2013-04-06 06:32:00,